User: anonymous   Login
Location: Hartman Creek State Park
(44.3257°N, 89.2134°W)
Time: 11:53:21
(UTC-05:00)
Language:

BREEZE-M DEB (TANK) - Orbit

View from above orbital plane
View from above orbital plane
View from above satellite
View from above satellite

Ground track
Ground track

The orbit data is extracted from the following two-line orbital elements,

1 29649U 06056B   16273.41138117  .00002690  00000-0  57175-3 0  9997
2 29649  49.5117  64.2774 5380760 358.7883   0.2635  4.98848462174742
Epoch (UTC): 29 September 2016 09:52:23
Eccentricity: 0.5380760
inclination: 49.5117°
perigee height: 305 km
apogee height: 15875 km
right ascension of ascending node: 64.2774°
argument of perigee: 358.7883°
revolutions per day: 4.98848462
mean anomaly at epoch: 0.2635°
orbit number at epoch: 17474

The dashed part of the orbit path shows where the satellite is in the earth's shadow,  

DLR